TimePST,TemperatureF,Dew PointF,Humidity,Sea Level PressureIn,VisibilityMPH,Wind Direction,Wind SpeedMPH,Gust SpeedMPH,PrecipitationIn,Events,Conditions,WindDirDegrees,DateUTC
1:56 AM,54.9,34.0,45,29.86,10.0,Calm,Calm,-,N/A,,Clear,0,2013-03-04 09:56:00
2:56 AM,50.9,32.9,50,29.86,10.0,South,6.9,-,N/A,,Clear,170,2013-03-04 10:56:00
4:56 AM,48.9,32.9,54,29.91,10.0,South,3.5,-,N/A,,Scattered Clouds,190,2013-03-04 12:56:00
5:56 AM,50.0,32.9,52,29.93,10.0,Calm,Calm,-,N/A,,Partly Cloudy,0,2013-03-04 13:56:00
6:56 AM,50.0,34.0,54,29.96,10.0,Calm,Calm,-,N/A,,Clear,0,2013-03-04 14:56:00
7:56 AM,56.8,36.0,46,29.98,10.0,NNW,6.9,-,N/A,,Clear,340,2013-03-04 15:56:00
8:56 AM,61.9,34.0,35,29.99,10.0,NNW,17.3,-,N/A,,Clear,340,2013-03-04 16:56:00
9:56 AM,63.9,32.0,30,30.00,10.0,North,15.0,-,N/A,,Clear,360,2013-03-04 17:56:00
10:56 AM,65.8,32.0,28,30.01,10.0,NE,9.2,17.3,N/A,,Clear,40,2013-03-04 18:56:00
11:56 AM,68.0,32.0,26,29.99,10.0,Variable,6.9,-,N/A,,Clear,0,2013-03-04 19:56:00
12:56 PM,70.0,30.0,23,29.97,10.0,Variable,4.6,-,N/A,,Clear,0,2013-03-04 20:56:00
1:56 PM,70.0,30.0,23,29.99,10.0,North,12.7,17.3,N/A,,Clear,350,2013-03-04 21:56:00
2:56 PM,68.9,28.0,22,29.99,10.0,NW,3.5,-,N/A,,Clear,310,2013-03-04 22:56:00
3:56 PM,72.0,27.1,19,29.99,10.0,ENE,5.8,-,N/A,,Clear,70,2013-03-04 23:56:00
4:56 PM,68.9,25.2,19,30.00,10.0,NE,8.1,-,N/A,,Clear,50,2013-03-05 00:56:00
5:56 PM,64.9,23.0,20,30.02,10.0,NE,5.8,-,N/A,,Clear,50,2013-03-05 01:56:00
6:56 PM,62.6,24.8,24,30.06,10.0,Calm,Calm,-,N/A,,Clear,0,2013-03-05 02:56:00
7:56 PM,56.8,23.0,27,30.07,10.0,Calm,Calm,-,N/A,,Clear,0,2013-03-05 03:56:00
8:56 PM,55.9,23.0,28,30.09,10.0,Calm,Calm,-,N/A,,Clear,0,2013-03-05 04:56:00
9:56 PM,52.0,25.2,35,30.11,10.0,SSE,4.6,-,N/A,,Clear,160,2013-03-05 05:56:00